| time (UTC) | temp F | wind direction | speed MPH | gust MPH | rain 1hr in | rain 24hr in | rain mn in | humidity % | barometer mb |
| 20260902180051 | 59 | 305 | 4.0 | 5.0 | 0.00 | 0.00 | 0.00 | 74 | 1021.6 |
| 20260902174551 | 60 | 303 | 3.0 | 5.0 | 0.00 | 0.00 | 0.00 | 71 | 1021.3 |
| 20260902173104 | 64 | 302 | 2.0 | 4.0 | 0.00 | 0.00 | 0.00 | 66 | 1021.3 |
| 20260902171606 | 65 | 57 | 4.0 | 6.0 | 0.00 | 0.00 | 0.00 | 63 | 1021.0 |
| 20260902170056 | 67 | 24 | 4.0 | 7.0 | 0.00 | 0.00 | 0.00 | 62 | 1021.1 |
| 20260902164602 | 68 | 50 | 4.0 | 9.0 | 0.00 | 0.00 | 0.00 | 56 | 1021.1 |
| 20260902163051 | 68 | 332 | 3.0 | 5.0 | 0.00 | 0.00 | 0.00 | 57 | 1021.1 |
| 20260902161551 | 69 | 58 | 2.0 | 5.0 | 0.00 | 0.00 | 0.00 | 55 | 1020.9 |
| 20260902160056 | 69 | 41 | 3.0 | 6.0 | 0.00 | 0.00 | 0.00 | 54 | 1021.1 |
| 20260902154555 | 69 | 81 | 5.0 | 9.0 | 0.00 | 0.00 | 0.00 | 52 | 1021.0 |
| 20260902153059 | 70 | 88 | 5.0 | 10.0 | 0.00 | 0.00 | 0.00 | 50 | 1021.0 |
| 20260902151549 | 71 | 32 | 4.0 | 10.0 | 0.00 | 0.00 | 0.00 | 48 | 1021.1 |
| 20260902144552 | 71 | 360 | 8.0 | 12.0 | 0.00 | 0.00 | 0.00 | 47 | 1021.1 |
| 20260902143053 | 72 | 46 | 3.0 | 10.0 | 0.00 | 0.00 | 0.00 | 45 | 1021.1 |
| 20260902141549 | 75 | 242 | 5.0 | 15.0 | 0.00 | 0.00 | 0.00 | 38 | 1021.0 |
| 20260902140100 | 73 | 232 | 6.0 | 13.0 | 0.00 | 0.00 | 0.00 | 40 | 1021.0 |
| 20260902134554 | 75 | 238 | 10.0 | 19.0 | 0.00 | 0.00 | 0.00 | 37 | 1021.1 |
| 20260902133105 | 75 | 249 | 8.0 | 15.0 | 0.00 | 0.00 | 0.00 | 36 | 1021.1 |
| 20260902131549 | 74 | 259 | 9.0 | 14.0 | 0.00 | 0.00 | 0.00 | 41 | 1021.1 |
| 20260902124553 | 76 | 294 | 8.0 | 15.0 | 0.00 | 0.00 | 0.00 | 38 | 1021.3 |
| 20260902123053 | 76 | 263 | 7.0 | 14.0 | 0.00 | 0.00 | 0.00 | 41 | 1021.5 |
| 20260902121558 | 75 | 224 | 4.0 | 17.0 | 0.00 | 0.00 | 0.00 | 41 | 1021.6 |
| 20260902120057 | 75 | 302 | 11.0 | 16.0 | 0.00 | 0.00 | 0.00 | 43 | 1021.8 |
| 20260902114554 | 71 | 288 | 8.0 | 14.0 | 0.00 | 0.00 | 0.00 | 49 | 1021.9 |
| 20260902113049 | 71 | 352 | 1.0 | 7.0 | 0.00 | 0.00 | 0.00 | 47 | 1021.9 |
| 20260902111551 | 70 | 0 | 2.0 | 5.0 | 0.00 | 0.00 | 0.00 | 49 | 1022.1 |
| 20260902104605 | 69 | 329 | 1.0 | 5.0 | 0.00 | 0.00 | 0.00 | 49 | 1022.2 |
| 20260902103105 | 70 | 76 | 3.0 | 6.0 | 0.00 | 0.00 | 0.00 | 46 | 1022.4 |
| 20260902101604 | 71 | 44 | 4.0 | 8.0 | 0.00 | 0.00 | 0.00 | 47 | 1022.5 |
| 20260902100053 | 69 | 121 | 1.0 | 5.0 | 0.00 | 0.00 | 0.00 | 48 | 1022.7 |
| 20260902094552 | 69 | 0 | 0.0 | 4.0 | 0.00 | 0.00 | 0.00 | 49 | 1022.8 |
| 20260902093057 | 68 | 249 | 0.0 | 4.0 | 0.00 | 0.00 | 0.00 | 53 | 1023.0 |
| 20260902091552 | 68 | 266 | 1.0 | 7.0 | 0.00 | 0.00 | 0.00 | 51 | 1022.8 |
| 20260902090052 | 67 | 0 | 1.0 | 4.0 | 0.00 | 0.00 | 0.00 | 53 | 1023.0 |
| 20260902084554 | 68 | 331 | 2.0 | 4.0 | 0.00 | 0.00 | 0.00 | 54 | 1023.0 |
| 20260902083055 | 66 | 313 | 3.0 | 7.0 | 0.00 | 0.00 | 0.00 | 61 | 1022.9 |
| 20260902081555 | 65 | 13 | 1.0 | 3.0 | 0.00 | 0.00 | 0.00 | 62 | 1023.1 |
| 20260902080050 | 64 | 316 | 2.0 | 4.0 | 0.00 | 0.00 | 0.00 | 63 | 1023.0 |
| 20260902074558 | 64 | 44 | 2.0 | 4.0 | 0.00 | 0.00 | 0.00 | 62 | 1023.1 |
| 20260902073047 | 64 | 0 | 0.0 | 3.0 | 0.00 | 0.00 | 0.00 | 62 | 1023.0 |
| 20260902071552 | 64 | 0 | 0.0 | 3.0 | 0.00 | 0.00 | 0.00 | 65 | 1022.9 |
| 20260902070055 | 63 | 0 | 0.0 | 4.0 | 0.00 | 0.00 | 0.00 | 66 | 1022.9 |
| 20260902064557 | 62 | 86 | 0.0 | 4.0 | 0.00 | 0.00 | 0.00 | 68 | 1022.6 |
| 20260902063107 | 60 | 69 | 2.0 | 3.0 | 0.00 | 0.00 | 0.00 | 71 | 1022.7 |
| 20260902061609 | 58 | 281 | 1.0 | 3.0 | 0.00 | 0.00 | 0.00 | 76 | 1022.6 |
| 20260902060052 | 56 | 277 | 1.0 | 3.0 | 0.00 | 0.00 | 0.00 | 84 | 1022.8 |
| 20260902054553 | 52 | 0 | 0.0 | 2.0 | 0.00 | 0.00 | 0.00 | 88 | 1022.8 |
| 20260902053105 | 49 | 284 | 2.0 | 3.0 | 0.00 | 0.00 | 0.00 | 88 | 1022.8 |
| 20260902051606 | 48 | 0 | 1.0 | 3.0 | 0.00 | 0.00 | 0.00 | 89 | 1022.7 |
| 20260902050052 | 47 | 0 | 0.0 | 2.0 | 0.00 | 0.00 | 0.00 | 90 | 1022.7 |
| 20260902044606 | 44 | 0 | 0.0 | 1.0 | 0.00 | 0.00 | 0.00 | 90 | 1022.5 |
| 20260902043103 | 42 | 284 | 1.0 | 2.0 | 0.00 | 0.00 | 0.00 | 89 | 1022.4 |
| 20260902041555 | 41 | 0 | 0.0 | 0.0 | 0.00 | 0.00 | 0.00 | 89 | 1022.5 |
| 20260902040054 | 42 | 0 | 0.0 | 2.0 | 0.00 | 0.00 | 0.00 | 88 | 1022.4 |
| 20260902034603 | 41 | 0 | 0.0 | 1.0 | 0.00 | 0.00 | 0.00 | 88 | 1022.6 |
| 20260902033056 | 42 | 0 | 0.0 | 0.0 | 0.00 | 0.00 | 0.00 | 89 | 1022.5 |
| 20260902031600 | 42 | 0 | 0.0 | 2.0 | 0.00 | 0.00 | 0.00 | 88 | 1022.6 |
| 20260902030056 | 42 | 284 | 1.0 | 3.0 | 0.00 | 0.00 | 0.00 | 88 | 1022.4 |
| 20260902024557 | 42 | 284 | 1.0 | 3.0 | 0.00 | 0.00 | 0.00 | 88 | 1022.4 |
| 20260902023048 | 42 | 0 | 0.0 | 3.0 | 0.00 | 0.00 | 0.00 | 88 | 1022.5 |
| 20260902021552 | 41 | 294 | 2.0 | 4.0 | 0.00 | 0.00 | 0.00 | 87 | 1022.4 |
| 20260902020053 | 42 | 0 | 0.0 | 3.0 | 0.00 | 0.00 | 0.00 | 87 | 1022.4 |
| 20260902014547 | 42 | 296 | 0.0 | 2.0 | 0.00 | 0.00 | 0.00 | 87 | 1022.5 |
| 20260902013107 | 42 | 295 | 1.0 | 2.0 | 0.00 | 0.00 | 0.00 | 87 | 1022.5 |
| 20260902011553 | 43 | 296 | 1.0 | 4.0 | 0.00 | 0.00 | 0.00 | 87 | 1022.5 |
| 20260902010049 | 42 | 286 | 3.0 | 6.0 | 0.00 | 0.00 | 0.00 | 86 | 1022.6 |
| 20260902004559 | 44 | 303 | 0.0 | 2.0 | 0.00 | 0.00 | 0.00 | 86 | 1022.4 |
| 20260902003101 | 45 | 0 | 0.0 | 0.0 | 0.00 | 0.00 | 0.00 | 86 | 1022.5 |
| 20260902001554 | 45 | 303 | 0.0 | 2.0 | 0.00 | 0.00 | 0.00 | 86 | 1022.3 |
| 20260902000104 | 45 | 302 | 0.0 | 2.0 | 0.00 | 0.00 | 0.00 | 86 | 1022.2 |
| 20260901234607 | 44 | 302 | 1.0 | 2.0 | 0.00 | 0.00 | 0.00 | 85 | 1022.2 |
| 20260901233056 | 44 | 303 | 0.0 | 3.0 | 0.00 | 0.00 | 0.00 | 85 | 1022.0 |
| 20260901231604 | 45 | 303 | 2.0 | 3.0 | 0.00 | 0.00 | 0.00 | 84 | 1022.0 |
| 20260901230103 | 45 | 304 | 2.0 | 4.0 | 0.00 | 0.00 | 0.00 | 84 | 1022.0 |
| 20260901224549 | 46 | 304 | 1.0 | 3.0 | 0.00 | 0.00 | 0.00 | 83 | 1022.0 |
| 20260901223054 | 47 | 304 | 1.0 | 4.0 | 0.00 | 0.00 | 0.00 | 82 | 1021.9 |
| 20260901221606 | 47 | 304 | 1.0 | 5.0 | 0.00 | 0.00 | 0.00 | 81 | 1022.0 |
| 20260901220051 | 48 | 238 | 1.0 | 4.0 | 0.00 | 0.00 | 0.00 | 80 | 1022.0 |
| 20260901214546 | 50 | 184 | 1.0 | 3.0 | 0.00 | 0.00 | 0.00 | 78 | 1021.9 |
| 20260901213056 | 51 | 0 | 0.0 | 3.0 | 0.00 | 0.00 | 0.00 | 78 | 1021.9 |
| 20260901211550 | 53 | 182 | 1.0 | 5.0 | 0.00 | 0.00 | 0.00 | 75 | 1021.7 |
| 20260901210048 | 53 | 195 | 2.0 | 4.0 | 0.00 | 0.00 | 0.00 | 75 | 1021.6 |
| 20260901204554 | 55 | 259 | 2.0 | 6.0 | 0.00 | 0.00 | 0.00 | 72 | 1021.5 |
| 20260901203057 | 56 | 125 | 6.0 | 9.0 | 0.00 | 0.00 | 0.00 | 72 | 1021.4 |
| 20260901201550 | 56 | 0 | 1.0 | 4.0 | 0.00 | 0.00 | 0.00 | 72 | 1021.4 |
| 20260901200047 | 55 | 15 | 3.0 | 8.0 | 0.00 | 0.00 | 0.00 | 72 | 1021.4 |
| 20260901194603 | 58 | 171 | 1.0 | 5.0 | 0.00 | 0.00 | 0.00 | 69 | 1021.4 |
| 20260901193054 | 59 | 0 | 1.0 | 4.0 | 0.00 | 0.00 | 0.00 | 67 | 1021.4 |
| 20260901191550 | 60 | 0 | 3.0 | 8.0 | 0.00 | 0.00 | 0.00 | 65 | 1021.5 |
| 20260901190048 | 60 | 260 | 0.0 | 5.0 | 0.00 | 0.00 | 0.00 | 64 | 1021.3 |
| 20260901184603 | 62 | 0 | 3.0 | 8.0 | 0.00 | 0.00 | 0.00 | 60 | 1020.9 |
| 20260901183115 | 63 | 115 | 6.0 | 11.0 | 0.00 | 0.00 | 0.00 | 58 | 1020.7 |
| 20260901181552 | 65 | 103 | 6.0 | 20.0 | 0.00 | 0.00 | 0.00 | 54 | 1020.4 |